KB5SMY Weather Reports


time (UTC)temp
F
wind
direction
speed
knots
gust
knots
rain 1hr
in
rain 24hr
in
rain mn
in
humidity
%
barometer
mb
20260506073004 61 36 3.5 7.0 0.00 0.00 0.00 80 1009.7
20260506072005 61 351 3.5 5.2 0.00 0.00 0.00 79 1009.7
20260506071004 61 14 2.6 4.3 0.00 0.00 0.00 79 1009.6
20260506062004 62 346 3.5 7.0 0.00 0.00 0.00 76 1009.3
20260506061004 62 341 2.6 7.8 0.00 0.00 0.00 76 1009.3
20260506051004 64 28 2.6 8.7 0.00 0.00 0.00 74 1009.4
20260506045004 65 18 1.7 8.7 0.00 0.00 0.00 73 1009.4
20260506044004 65 349 4.3 8.7 0.00 0.00 0.00 73 1009.3
20260506043211 66 11 3.5 9.6 0.00 0.00 0.00 72 1009.3
20260506042004 66 347 5.2 8.7 0.00 0.00 0.00 72 1009.1
20260506041004 67 5 2.6 9.6 0.00 0.00 0.00 72 1009.4
20260506040004 67 20 6.1 9.6 0.00 0.00 0.00 71 1009.3
20260506035004 67 338 4.3 9.6 0.00 0.00 0.00 71 1009.2
20260506034004 68 355 3.5 8.7 0.00 0.00 0.00 71 1009.1
20260506033005 68 334 1.7 10.4 0.00 0.00 0.00 71 1008.9
20260506032211 68 351 7.8 11.3 0.00 0.00 0.00 70 1008.7
20260506031004 68 360 8.7 9.6 0.00 0.00 0.00 70 1008.2
20260506030004 69 5 4.3 8.7 0.00 0.00 0.00 70 1007.9
20260506025004 69 342 5.2 8.7 0.00 0.00 0.00 69 1007.6
20260506024004 70 360 3.5 9.6 0.00 0.00 0.00 69 1007.5
20260506023004 70 346 3.5 12.2 0.00 0.00 0.00 68 1007.3
20260506022004 71 342 7.0 9.6 0.00 0.00 0.00 68 1007.0
20260506021004 72 39 8.7 9.6 0.00 0.00 0.00 67 1006.8
20260506020004 72 355 4.3 7.8 0.00 0.00 0.00 68 1006.7
20260506015004 72 338 4.3 7.8 0.00 0.00 0.00 67 1006.5
20260506014004 72 14 2.6 7.8 0.00 0.00 0.00 66 1006.3
20260506013004 73 323 1.7 7.0 0.00 0.00 0.00 65 1005.9
20260506012004 74 9 4.3 8.7 0.00 0.00 0.00 64 1005.6
20260506011004 74 335 3.5 8.7 0.00 0.00 0.00 64 1005.7
20260506010005 75 9 2.6 7.8 0.00 0.00 0.00 63 1005.3
20260506005004 76 44 2.6 7.8 0.00 0.00 0.00 62 1005.4
20260506004005 76 5 7.8 10.4 0.00 0.00 0.00 62 1005.4
20260506003005 77 355 5.2 8.7 0.00 0.00 0.00 61 1004.9
20260506002003 78 335 2.6 11.3 0.00 0.00 0.00 59 1004.8
20260506001004 80 33 7.8 12.2 0.00 0.00 0.00 58 1004.7
20260506000004 81 30 3.5 11.3 0.00 0.00 0.00 58 1004.7
20260505235004 83 355 8.7 13.9 0.00 0.00 0.00 57 1004.6
20260505234004 85 12 8.7 13.9 0.00 0.00 0.00 55 1004.2
20260505233004 85 44 4.3 11.3 0.00 0.00 0.00 50 1003.8
20260505232004 88 67 7.0 17.4 0.00 0.00 0.00 46 1003.7
20260505231004 93 161 1.7 8.7 0.00 0.00 0.00 40 1003.4
20260505230004 93 234 2.6 4.3 0.00 0.00 0.00 41 1003.3
20260505225004 93 259 3.5 4.3 0.00 0.00 0.00 38 1003.3
20260505224004 94 211 3.5 5.2 0.00 0.00 0.00 37 1003.3
20260505223004 94 189 1.7 5.2 0.00 0.00 0.00 38 1003.2
20260505222004 94 212 2.6 6.1 0.00 0.00 0.00 38 1003.2
20260505221004 94 190 3.5 6.1 0.00 0.00 0.00 40 1003.1
20260505220212 94 275 3.5 4.3 0.00 0.00 0.00 38 1003.1
20260505215004 94 228 2.6 4.3 0.00 0.00 0.00 39 1003.1
20260505214004 94 332 4.3 7.8 0.00 0.00 0.00 40 1003.3
20260505213004 94 314 1.7 5.2 0.00 0.00 0.00 39 1003.2
20260505212005 93 246 1.7 6.1 0.00 0.00 0.00 42 1003.5
20260505211005 93 218 0.9 7.0 0.00 0.00 0.00 41 1003.5
20260505210004 93 224 3.5 7.0 0.00 0.00 0.00 43 1003.6
20260505205004 93 313 0.9 7.8 0.00 0.00 0.00 43 1003.9
20260505204211 93 236 5.2 8.7 0.00 0.00 0.00 42 1004.1
20260505203212 93 319 1.7 6.1 0.00 0.00 0.00 44 1004.2
20260505202005 92 216 1.7 7.0 0.00 0.00 0.00 44 1004.0
20260505201004 92 213 3.5 7.8 0.00 0.00 0.00 44 1004.4
20260505200004 92 271 1.7 6.1 0.00 0.00 0.00 48 1004.4
20260505195004 91 298 0.9 8.7 0.00 0.00 0.00 50 1004.5
20260505194004 90 233 4.3 7.0 0.00 0.00 0.00 48 1004.6
20260505193004 90 242 2.6 8.7 0.00 0.00 0.00 49 1004.6
20260505192004 90 124 2.6 8.7 0.00 0.00 0.00 48 1004.7
20260505191004 89 197 0.9 8.7 0.00 0.00 0.00 52 1004.7
20260505190212 89 166 3.5 9.6 0.00 0.00 0.00 53 1004.7
20260505185004 88 250 3.5 7.8 0.00 0.00 0.00 53 1004.8
20260505184212 88 194 2.6 8.7 0.00 0.00 0.00 55 1004.9
20260505183004 87 236 3.5 7.0 0.00 0.00 0.00 58 1005.1
20260505182004 86 252 6.1 9.6 0.00 0.00 0.00 57 1005.2
20260505181004 86 211 2.6 7.8 0.00 0.00 0.00 59 1005.2
20260505180004 85 199 3.5 7.0 0.00 0.00 0.00 60 1005.3
20260505175004 85 232 4.3 8.7 0.00 0.00 0.00 61 1005.4
20260505174211 84 227 4.3 9.6 0.00 0.00 0.00 63 1005.5
20260505173005 84 164 5.2 10.4 0.00 0.00 0.00 63 1005.6
20260505172004 83 237 2.6 7.8 0.00 0.00 0.00 65 1005.7
20260505171004 83 211 4.3 7.8 0.00 0.00 0.00 64 1005.6
20260505170212 83 232 2.6 8.7 0.00 0.00 0.00 67 1005.6
20260505165005 82 184 1.7 10.4 0.00 0.00 0.00 67 1005.4
20260505164005 81 249 3.5 9.6 0.00 0.00 0.00 68 1005.3
20260505163005 80 178 5.2 10.4 0.00 0.00 0.00 68 1005.3
20260505162004 80 200 6.1 13.0 0.00 0.00 0.00 68 1005.1
20260505161004 80 163 5.2 11.3 0.00 0.00 0.00 69 1005.1
20260505153004 79 246 4.3 8.7 0.00 0.00 0.00 72 1005.3
20260505152004 79 186 3.5 13.0 0.00 0.00 0.00 72 1005.5
20260505151211 78 214 5.2 10.4 0.00 0.00 0.00 74 1005.6
20260505125004 70 135 1.7 7.8 0.00 0.00 0.00 85 1005.1
20260505124005 70 173 2.6 10.4 0.00 0.00 0.00 85 1005.2
20260505123004 70 177 3.5 7.8 0.00 0.00 0.00 85 1004.8
20260505122004 70 165 4.3 8.7 0.00 0.00 0.00 85 1004.6
20260505121004 70 215 5.2 13.9 0.00 0.00 0.00 85 1004.4
20260505120005 70 193 3.5 10.4 0.00 0.00 0.00 85 1004.3
20260505115004 70 191 3.5 9.6 0.00 0.00 0.00 85 1004.2
20260505114004 70 203 4.3 8.7 0.00 0.00 0.00 85 1004.1
20260505113005 70 138 4.3 10.4 0.00 0.00 0.00 85 1003.9
20260505112004 70 187 6.1 8.7 0.00 0.00 0.00 85 1004.1
20260505111004 70 184 3.5 12.2 0.00 0.00 0.00 85 1004.0
20260505102004 70 177 3.5 8.7 0.00 0.00 0.00 84 1003.9
20260505101004 70 204 2.6 10.4 0.00 0.00 0.00 83 1004.0
20260505100004 70 173 4.3 13.0 0.00 0.00 0.00 83 1004.2
20260505095005 70 165 4.3 9.6 0.00 0.00 0.00 83 1004.2
20260505094005 70 194 10.4 10.4 0.00 0.00 0.00 83 1004.2
20260505093004 70 158 4.3 10.4 0.00 0.00 0.00 83 1004.2
20260505092004 70 157 5.2 12.2 0.00 0.00 0.00 83 1004.4
20260505091004 70 144 7.0 9.6 0.00 0.00 0.00 83 1004.4
20260505090004 71 117 3.5 12.2 0.00 0.00 0.00 82 1004.4
20260505085004 70 117 2.6 9.6 0.00 0.00 0.00 82 1004.7
20260505084005 71 172 0.9 7.8 0.00 0.00 0.00 81 1004.8
20260505083005 71 182 5.2 9.6 0.00 0.00 0.00 81 1004.7
20260505082005 71 192 4.3 9.6 0.00 0.00 0.00 80 1004.7
20260505081004 71 190 7.0 7.0 0.00 0.00 0.00 80 1004.6